Terminal Aerodrome Forecast
Issued by NWS Wilmington, OH

Current Version | Previous Version | Graphics & Text | Print | Product List | Glossary On
Versions: 1 2 3 4 5 6 7 8 9 10 11 12
982
FTUS41 KILN 211736
TAFILN
TAF
KILN 211736Z 2118/2218 34010KT P6SM VCSH OVC009
     FM211900 35012KT P6SM VCSH SCT009 OVC012
     FM212100 35010KT P6SM VCSH SCT015 OVC050
     FM220100 34004KT P6SM SCT060
     FM220600 31005KT P6SM FEW070 SCT100
     FM221700 34010G18KT P6SM SCT050=

USA.gov is the U.S. government's official web portal to all federal, state and local government web resources and services.